GFSGL_2pvu_pres_132.txt.gz
Presure
135 132 129 136 140 129 143 150 139 130 147 134 127 144 147 141 137 143 110 109 141 132 127 121 120 124 130 128 129 124 130 127 130 131 135 144 138 133 128 148 149 146 160
134 143 147 128 141 157 133 141 144 143 150 125 132 127 130 163 148 135 128 127 140 124 124 127 128 117 110 149 125 124 122 143 122 123 123 124 139 145 124 125 123 120 146
153 155 140 131 159 146 145 138 141 140 139 134 122 156 131 130 123 124 122 120 126 119 120 117 119 120 118 128 140 151 136 130 125 128 129 144 163 147 135 136 139 139 135
140 130 149 129 132 140 129 148 137 137 145 137 133 140 133 132 133 123 119 121 119 122 126 125 120 121 116 122 115 121 125 120 128 154 136 127 122 131 172 125 142 140 133
139 141 143 150 130 148 140 146 121 133 130 129 148 130 130 134 130 124 125 126 119 121 132 131 120 124 143 120 125 126 134 132 162 149 119 128 132 136 131 114 135 133 132
141 140 128 144 149 141 132 132 127 145 139 122 132 140 141 140 123 121 119 122 124 123 127 112 141 133 130 142 127 131 139 135 134 127 136 166 116 156 145 157 141 160 144
140 159 147 134 126 154 144 140 149 134 137 133 126 119 131 125 123 125 114 118 119 118 139 139 125 133 120 126 128 136 118 131 113 131 133 125 130 149 167 131 124 134 117
131 134 130 149 140 133 144 138 135 144 145 150 143 134 127 134 135 128 128 126 141 145 126 136 124 130 149 124 149 129 128 123 128 129 145 127 127 119 123 124 138 126 154
156 186 154 135 132 136 141 137 142 157 149 153 155 145 133 136 142 142 125 139 136 154 125 129 115 115 112 128 128 124 122 124 135 124 124 128 127 126 125 122 118 123 130
126 134 136 145 143 154 161 162 165 129 138 143 143 140 144 147 137 144 148 153 135 152 125 159 121 136 158 138 146 113 181 126 122 113 132 134 148 120 125 129 127 129 135
143 139 136 156 138 148 149 150 145 148 143 148 136 133 132 151 144 122 140 128 147 132 158 119 150 152 128 124 136 134 126 137 138 140 128 139 134 130 127 127 126 122 130
142 138 144 136 142 137 161 151 151 149 153 152 154 151 132 138 139 144 143 151 104 147 134 148 152 116 156 141 134 146 131 141 137 141 132 138 131 142 158 127 148 118 117
140 143 142 141 145 144 151 134 153 133 145 123 146 150 136 140 144 121 144 151 141 136 121 131 145 132 108 130 139 126 145 144 132 145 162 139 155 136 140 157 154 143 131
143 131 144 141 145 139 147 139 141 156 142 135 144 124 143 150 122 137 135 143 147 126 152 147 154 116 146 122 146 112 148 146 140 137 123 129 150 141 133 145 153 138 109
134 134 140 135 147 147 146 139 138 138 139 141 143 148 131 124 136 117 139 131 129 130 121 143 135 138 123 150 153 154 152 123 144 119 136 141 160 134 144 121 147 151 163
162 187 146 117 133 129 134 146 144 143 135 142 142 138 132 136 139 130 129 142 131 141 142 146 149 141 109 144 123 137 108 143 145 147 122 146 155 118 149 153 164 138 151
140 117 153 122 149 157 157 136 154 140 146 145 146 137 151 147 146 145 145 145 145 141 104 147 128 152 139 143 121 158 160 133 148 98 123 155 164 130 175 176 132 155 136
136 145 131 134 134 157 149 148 160 160 151 143 155 143 146 146 140 144 142 143 135 133 135 126 148 125 143 131 138 143 152 160 149 141 154 143 147 160 141 168 155 127 169
140 135 126 150 139 168 140 128 151 150 143 140 134 102 134 118 126 134 136 154 153 150 150 165 142 143 153 143 149 151 130 148 166 167 179 161 148 150 153 158 186 183 170
179 150 167 135 147 129 141 144 187 133 182 153 155 177 135 132 129 158 169 154 152 171 143 133 133 153 144 184 175 152 189 166 168 148 151 141 216 204 202 200 206 201 199
193 187 182 181 181 181 152 176 186 170 186 178 153 150 152 151 151 176 149 127 157 175 158 153 154 183 193 193 169 147 225 207 202 201 195 200 195 193 200 213 212 218 194
210 222 219 200 191 191 190 188 152 192 137 136 178 189 185 187 169 189 160 144 173 172 172 216 218 218 219 212 198 201 196 197 198 189 189 196 202 229 234 236 228 232 234
184 183 183 183 196 211 203 221 224 226 224 224 227 227 214 209 209 207 204 211 207 203 199 196 196 198 189 205 208 208 207 207 218 239 284 253 301 276 281 304 304 303 302
245 213 206 234 187 187 189 190 191 192 193 193 193 193 193 196 196 194 195 196 198 186 203 208 208 206 204 207 280 237 238 292 297 300 298 295 295 294 292 287 284 292 327
275 277 278 279 285 212 264 291 208 194 191 185 185 198 202 203 199 189 190 193 204 213 217 281 230 283 284 283 282 283 284 286 286 291 290 309 343 364 361 360 359 356 353
255 258 260 263 264 263 262 262 263 271 277 278 285 290 289 283 290 285 276 276 277 276 270 268 269 270 270 270 272 291 320 324 331 344 350 347 347 345 341 338 360 374 384

GFSGL_2pvu_pres_138.txt.gz
Presure
121 149 140 139 127 123 131 143 130 135 128 123 126 138 131 146 136 121 135 116 133 124 126 127 143 134 118 121 118 117 123 130 123 122 127 128 133 139 135 142 125 175 147
119 120 120 119 136 125 123 130 137 123 142 127 126 142 140 121 123 135 132 115 124 128 125 127 123 122 119 127 129 119 112 115 109 113 110 129 139 124 123 166 149 113 124
114 124 123 122 130 125 123 124 137 120 147 120 136 134 146 128 140 133 118 131 130 127 120 117 118 120 118 120 149 122 121 113 121 132 136 139 136 115 135 145 137 143 124
125 134 128 125 126 129 131 130 145 134 146 137 133 121 119 145 154 135 117 136 126 121 118 115 121 127 117 127 134 124 137 133 138 127 129 128 129 140 118 135 131 136 130
137 111 133 131 130 134 137 140 144 152 139 144 127 138 120 149 129 125 122 125 123 123 119 118 124 122 121 132 140 128 128 130 119 131 122 129 124 133 135 131 132 141 123
140 135 137 110 132 128 126 140 144 144 139 133 132 119 143 141 134 136 133 126 125 120 127 122 124 125 127 132 118 143 130 123 122 134 125 135 125 124 123 134 125 129 137
120 128 127 129 135 138 134 114 125 117 134 147 139 149 131 129 142 134 127 132 136 129 132 127 129 126 123 121 121 126 131 134 131 125 132 113 146 130 139 122 134 124 129
138 145 135 145 141 151 151 143 137 141 144 130 133 134 127 128 124 127 132 140 139 143 140 124 122 122 122 122 126 126 127 153 139 125 130 131 117 138 122 119 146 126 138
137 117 144 104 150 138 140 144 135 140 122 122 139 145 141 140 137 143 140 132 139 132 125 142 127 130 134 125 130 127 121 131 151 145 130 157 141 128 155 121 131 137 140
155 149 136 140 125 160 140 135 143 132 152 148 143 140 139 147 142 133 145 141 149 148 143 140 142 133 140 130 146 143 143 127 126 126 160 139 110 123 137 114 160 169 139
150 128 148 128 127 123 169 145 151 131 134 139 130 125 146 141 141 143 148 140 143 148 149 140 128 152 147 144 147 142 144 122 138 124 150 127 144 153 144 138 151 131 138
162 133 144 157 148 140 129 140 134 134 142 130 140 148 143 133 132 134 138 147 144 147 126 142 128 141 127 140 127 151 147 136 147 148 155 142 133 125 151 137 144 131 128
173 128 151 144 132 133 144 138 141 140 139 125 117 134 136 142 149 140 147 130 143 136 147 143 140 147 150 148 149 150 149 140 142 140 143 144 127 140 138 127 127 128 137
151 148 177 158 158 131 134 154 153 153 143 146 122 128 140 144 147 144 141 143 147 145 144 149 151 152 143 141 141 143 139 135 145 126 147 141 127 132 131 146 150 146 149
167 145 115 144 143 143 135 147 155 136 151 134 150 139 137 135 143 135 142 151 157 142 149 147 142 137 138 133 131 138 144 127 127 144 146 136 136 136 155 146 129 136 146
145 158 147 145 185 147 135 144 148 152 154 138 146 147 148 142 143 150 152 153 140 142 135 149 150 146 144 136 139 140 146 139 137 152 147 135 155 143 127 122 166 133 152
138 159 124 171 159 192 157 145 154 123 159 164 157 151 143 148 147 134 143 146 144 132 152 131 123 141 147 141 151 148 136 125 128 165 131 148 159 118 117 125 163 151 164
107 172 172 150 136 133 133 167 154 163 136 146 137 149 159 138 140 146 149 152 149 134 154 143 153 146 127 125 121 154 155 110 141 143 150 133 152 150 162 165 168 171 173
162 169 171 160 163 141 143 151 139 177 145 153 163 161 133 152 128 141 151 146 130 127 124 126 158 141 168 155 147 130 115 141 141 146 170 155 152 159 149 168 184 198 182
178 183 187 165 161 131 167 168 158 155 167 165 128 166 168 157 163 158 119 127 143 159 166 169 150 134 165 168 157 150 161 160 174 163 164 168 191 196 201 185 187 220 206
195 186 188 192 190 188 189 161 176 161 159 173 190 146 156 162 164 176 145 143 142 197 146 189 152 157 163 170 190 168 160 181 164 133 164 197 197 200 189 233 190 187 213
281 192 197 194 193 187 177 143 170 147 184 140 157 183 159 157 170 171 177 176 188 172 201 173 169 171 177 194 194 191 194 192 193 194 201 209 214 192 202 206 224 217 263
258 219 229 252 205 192 197 192 191 192 186 186 187 189 190 190 192 194 200 203 193 191 196 197 200 193 198 196 198 220 227 183 183 210 195 213 231 213 237 271 275 283 272
253 252 245 250 259 232 205 221 215 220 210 215 218 221 172 205 208 209 204 182 173 200 175 175 280 252 185 199 230 226 192 279 195 270 289 278 276 274 264 264 255 252 257
250 245 246 235 238 236 239 242 248 246 250 245 197 194 194 192 193 193 193 191 195 191 241 195 199 195 192 194 196 196 238 242 268 267 269 262 263 259 253 260 253 259 271
273 276 277 246 266 277 233 241 256 288 278 274 273 273 284 281 280 278 275 269 269 270 275 278 271 276 269 268 268 265 262 265 263 260 255 256 255 257 257 251 274 300 332

GFSGL_2pvu_pres_141.txt.gz
Presure
150 126 152 125 130 136 118 134 121 124 123 127 135 152 122 134 125 135 119 127 131 122 127 131 123 121 130 142 132 152 120 117 116 107 133 138 140 131 115 148 146 123 116
131 154 140 138 119 122 126 141 135 142 138 127 126 141 147 142 120 132 131 125 128 128 126 129 120 123 120 122 115 131 138 116 129 129 135 125 127 124 142 122 144 153 130
130 125 121 140 127 131 128 145 144 128 143 123 130 143 143 129 128 139 134 119 129 127 130 121 117 121 125 131 129 138 122 138 136 135 127 132 129 125 127 131 130 126 133
127 129 148 127 125 122 126 127 127 140 131 139 141 133 136 147 136 132 131 123 145 131 119 119 119 120 122 122 121 127 122 120 126 131 129 128 128 132 120 124 117 142 121
133 128 123 115 125 127 126 124 143 125 131 124 139 120 134 118 117 147 145 136 126 143 127 121 124 129 121 119 124 125 119 123 120 141 142 134 132 129 132 129 145 145 142
154 130 133 134 131 127 132 133 133 131 131 144 131 140 120 115 148 127 130 140 129 125 126 127 120 122 119 123 122 124 124 120 123 125 129 140 141 105 118 124 129 122 136
146 141 140 120 130 133 123 114 136 138 141 138 137 125 127 133 124 129 145 134 131 134 134 127 130 123 130 129 126 122 123 127 129 127 130 119 126 141 140 141 108 119 124
134 127 148 140 141 136 136 129 130 122 136 141 146 136 119 129 127 125 122 131 131 120 121 131 130 133 134 119 123 125 121 122 131 134 131 142 141 152 127 138 149 142 147
138 147 123 124 146 128 120 130 153 140 140 127 132 132 135 143 141 137 146 135 133 129 131 130 126 132 134 136 129 130 134 142 137 147 155 152 132 155 128 145 130 149 137
143 130 131 135 147 148 138 152 143 148 156 154 115 156 127 132 151 140 132 143 142 148 148 149 145 153 129 149 139 148 154 161 149 133 144 128 145 143 144 134 152 113 149
157 143 154 164 137 150 129 147 134 142 159 144 136 149 128 141 147 141 147 135 134 147 128 141 152 135 132 140 148 150 144 136 146 144 140 146 135 151 153 152 141 141 135
138 122 152 163 143 163 116 126 137 151 145 149 152 139 149 142 136 138 145 141 151 141 136 141 135 130 139 144 149 137 141 147 145 141 146 150 150 148 139 134 136 130 136
145 149 132 156 167 152 166 138 139 172 170 140 166 173 128 145 140 128 129 137 125 127 125 141 133 146 141 146 141 136 144 148 143 150 148 134 148 154 141 144 148 135 135
134 151 150 134 137 136 150 148 136 115 156 162 132 131 137 135 135 127 142 129 140 134 131 138 125 146 150 136 147 142 149 136 143 150 144 144 141 145 143 148 139 134 141
154 147 147 169 150 155 151 169 153 146 137 149 174 147 118 124 129 140 139 130 140 145 139 126 138 152 145 143 143 149 153 156 145 151 142 141 137 142 151 147 133 145 151
154 134 139 145 157 141 145 158 148 157 133 144 180 151 147 151 141 139 162 153 149 154 149 142 138 147 144 150 150 150 142 143 133 134 137 151 149 122 117 122 146 165 140
138 142 143 140 143 151 170 167 159 156 148 158 154 144 162 155 149 152 153 155 159 153 149 148 132 150 156 125 155 137 140 126 155 140 125 130 148 156 144 114 164 165 114
179 146 142 171 143 161 131 155 135 152 167 163 148 146 155 153 152 151 149 149 155 154 166 152 138 170 166 118 160 154 153 127 140 149 122 144 147 167 144 151 160 161 157
140 160 159 158 152 155 150 153 153 165 118 140 174 140 124 153 174 187 138 144 142 160 151 156 164 142 137 160 165 125 139 132 155 172 169 155 166 166 179 167 173 165 207
189 168 167 165 156 130 128 144 142 169 164 161 165 172 180 170 165 145 158 142 162 170 179 177 161 143 139 183 158 155 153 157 158 159 162 179 171 178 183 173 213 215 213
193 190 159 183 177 149 150 168 162 161 157 151 153 163 170 123 145 143 170 173 177 166 136 156 151 157 155 167 163 175 176 146 181 174 164 192 191 204 211 213 181 220 201
204 185 192 227 214 198 190 162 162 161 158 163 135 151 150 165 158 159 171 178 155 174 158 177 183 178 187 181 183 154 185 198 216 201 200 210 222 193 214 237 238 213 264
237 205 200 199 199 192 186 199 140 200 194 182 168 163 168 169 170 170 168 171 183 158 163 175 184 175 179 193 198 188 178 195 197 205 233 233 205 267 266 269 279 280 275
273 271 267 270 234 201 196 196 212 206 193 189 185 191 200 194 195 197 194 190 168 195 188 183 177 193 178 198 186 190 258 204 218 251 284 284 281 277 278 271 268 266 265
256 257 263 260 320 304 291 243 253 252 214 252 264 261 212 212 218 220 262 268 215 205 253 241 231 235 204 221 284 284 286 261 280 270 276 269 266 265 265 262 255 256 252
299 301 298 295 295 285 289 278 273 243 239 238 252 250 252 249 246 242 241 241 255 275 269 271 265 278 267 278 268 270 268 265 264 265 259 256 255 254 253 259 273 272 281

GFSGL_2pvu_pres_147.txt.gz
Presure
154 146 154 167 156 149 145 122 133 120 127 133 138 121 131 143 147 147 137 133 131 130 130 136 126 126 119 117 125 137 117 131 123 125 136 135 135 129 143 147 137 123 148
187 169 149 166 142 144 186 128 126 121 122 134 146 147 122 132 136 127 130 125 130 148 138 119 118 123 127 135 129 132 126 121 117 113 126 128 119 134 132 137 136 128 146
155 182 150 129 131 150 124 130 124 125 129 136 144 128 128 126 123 132 126 124 125 124 125 126 121 128 123 126 121 127 124 124 122 115 119 120 125 126 123 130 128 130 126
143 141 147 149 146 144 132 138 127 126 129 157 147 140 133 132 128 125 133 129 123 125 131 120 126 126 121 119 130 124 120 124 128 131 127 123 126 128 130 129 127 131 140
141 136 149 131 136 136 139 126 129 124 124 129 130 136 149 148 143 132 136 139 138 132 132 132 150 119 123 129 124 121 113 122 129 130 134 137 132 134 138 147 144 136 133
150 140 138 132 137 131 149 144 141 128 133 139 142 141 141 142 133 133 126 134 136 131 141 148 145 135 143 135 115 120 135 131 130 134 128 127 140 135 144 144 142 146 148
139 148 143 138 130 125 134 130 141 140 139 138 126 132 137 139 131 138 128 135 135 135 139 142 126 128 136 144 132 132 126 134 136 138 138 142 139 138 136 132 128 146 144
122 140 147 139 146 127 135 135 136 137 138 137 137 127 133 136 137 141 136 135 140 141 128 130 121 134 135 124 130 133 134 129 142 137 141 132 143 142 131 132 140 140 149
152 149 141 139 127 117 141 138 140 139 126 136 139 141 144 139 140 139 143 127 124 143 127 128 132 142 127 136 145 134 142 136 128 135 140 133 127 136 134 125 145 147 148
166 154 135 154 116 135 132 138 143 139 138 135 141 129 124 137 129 152 135 153 127 149 147 144 142 150 147 142 142 140 134 136 135 148 134 135 144 148 141 143 145 145 141
148 145 153 161 162 128 138 123 140 141 140 144 143 150 144 148 133 132 151 127 155 148 127 129 136 144 138 135 149 145 141 123 136 133 146 140 151 149 152 152 150 147 152
142 140 146 124 158 163 134 144 144 143 143 137 155 142 153 122 145 136 155 144 167 158 159 156 158 155 151 160 156 146 153 168 148 133 138 151 152 152 142 148 145 142 152
139 153 145 134 145 133 158 140 121 136 145 123 148 145 141 150 147 144 150 153 130 134 156 189 160 148 150 134 158 127 189 133 135 140 131 139 139 144 147 142 134 133 144
156 128 149 149 135 149 151 148 139 139 146 142 142 141 147 148 151 133 139 152 128 149 133 125 158 192 176 173 159 149 148 145 135 155 138 141 137 141 144 149 150 139 141
158 155 141 136 154 152 135 151 163 142 149 150 160 151 150 143 157 149 142 129 146 147 138 173 179 132 135 141 141 146 149 151 145 139 141 158 166 150 148 152 145 137 158
173 157 144 142 146 149 159 124 141 155 148 142 141 151 142 132 142 133 132 134 145 142 149 130 133 156 143 163 141 134 151 131 154 151 148 158 138 125 145 138 148 152 142
181 177 165 153 148 158 132 145 152 132 132 153 151 108 142 150 140 139 148 150 143 152 155 144 159 146 142 136 120 117 144 143 170 133 128 122 160 165 150 168 170 168 183
198 186 181 178 158 161 144 155 155 144 154 133 138 135 137 144 139 138 145 153 151 133 152 148 153 141 164 152 123 143 157 162 169 157 149 165 155 160 176 160 161 164 166
208 210 190 186 181 174 171 164 160 157 131 142 152 147 151 140 141 152 136 150 156 148 155 157 130 163 152 137 160 168 156 155 162 159 155 154 161 144 163 167 174 175 158
231 206 204 200 190 162 185 180 165 164 154 151 130 134 133 123 153 146 135 138 144 148 130 157 143 133 154 153 159 152 154 161 161 151 155 163 163 168 167 173 171 150 182
230 228 236 201 185 208 212 190 183 180 175 163 161 164 153 158 136 133 141 146 168 166 140 153 149 144 167 144 152 155 155 151 155 151 184 190 181 179 183 178 182 173 183
251 253 230 229 206 200 193 233 214 192 186 184 182 173 163 158 146 145 146 145 153 154 153 153 155 150 153 151 146 158 158 163 165 174 200 199 184 180 180 180 206 225 246
223 225 258 259 234 228 225 196 200 208 205 233 191 189 184 183 181 180 171 172 169 171 165 174 185 167 166 170 172 178 178 179 175 189 168 177 188 175 197 222 246 248 266
244 241 237 238 255 256 235 227 227 225 201 188 186 181 219 202 221 197 188 185 194 183 217 170 199 182 180 208 175 181 208 200 221 172 199 212 211 204 232 276 257 263 266
300 303 241 238 240 248 258 262 261 277 246 224 227 228 208 185 173 153 173 177 179 187 222 180 177 174 163 200 210 192 204 176 202 199 286 204 252 272 240 262 258 267 261
267 275 281 290 301 256 240 236 241 246 252 255 253 251 225 218 214 214 213 222 219 210 227 215 203 201 195 204 192 206 237 202 206 273 265 246 262 261 261 260 257 257 265